Welcome to the New NWS' Forecast!
Most changes are behind the scenes, but click here for differences you might notice.

Regional Weather Roundup (RWR)

Issued by Gray - Portland, ME (GYX)

                            
000
ASUS41 KGYX 191505
RWRGYX
WEATHER ROUNDUP FOR MAINE AND NEW HAMPSHIRE
NATIONAL WEATHER SERVICE GRAY ME
1000 AM EST MON NOV 19 2018

MEZ002-005-006-010-012-015-018-020-021-024-026-027-029-191600-
MAINE
  
CITY           SKY/WX    TMP DP  RH WIND       PRES   REMARKS
PORTLAND       LGT SNOW  33  31  92 VRB5      30.17F VSB 1            
SANFORD        LGT SNOW  32  31  96 N3        30.15F VSB 3/4          
BAR HARBOR     FLURRIES  29  25  85 N3        30.19F                  
WISCASSET      LGT SNOW  32  31  96 CALM      30.18F FOG              
ROCKLAND       LGT RAIN  34  33  96 NE6       30.17F                  
FRYEBURG       CLOUDY    28  21  75 CALM      30.15F                  
LEWISTONAUBURN MIX PCPN  28  26  92 CALM      30.17F FOG              
AUGUSTA        LGT SNOW  27  24  89 CALM      30.17F VSB 3/4          
WATERVILLE     LGT SNOW  25  22  88 MISG      30.14F FOG              
BANGOR         LGT SNOW  26  21  81 CALM      30.18F FOG              
GREENVILLE       N/A     23  13  65 SE9       30.06F                  
MILLINOCKET    CLOUDY    19  15  84 CALM      30.16F                  
HOULTON        CLOUDY    22  17  81 SW6       30.13F                  
PRESQUE ISLE   CLOUDY    19  14  81 SE5       30.12F                  
FRENCHVILLE    CLOUDY    14   9  80 SE5       30.06F                  
CARIBOU        CLOUDY    12   8  84 CALM      30.10S                  
$$

NHZ002-005-008-009-011-012-014-191600-
NEW HAMPSHIRE
  
CITY           SKY/WX    TMP DP  RH WIND       PRES   REMARKS
ROCHESTER      LGT SNOW  32  32 100 N5        30.14F VSB 1            
NASHUA         LGT RAIN  33  33 100 NW3       30.16S                  
MANCHESTER     LGT RAIN  33  31  92 N3        30.14S FOG              
CONCORD        MIX PCPN  31  30  96 CALM      30.15F FOG              
LACONIA        CLOUDY    32  30  92 CALM      30.14F                  
PLYMOUTH       CLOUDY    29  25  83 CALM      30.14F                  
BERLIN         CLOUDY    25  19  78 CALM      30.09F                  
WHITEFIELD     CLOUDY    28  22  78 CALM      30.09F                  
JAFFREY        CLOUDY    32  31  96 CALM      30.10S                  
KEENE          CLOUDY    33  31  92 CALM      30.13F                  
LEBANON        CLOUDY    33  27  78 CALM      30.12F                  
MT WASHINGTON  SNOWSHWR  19  19 100 W31         N/A  VSB 0   WCI   0  
$$

VTZ005-007-008-191600-
VERMONT
  
CITY           SKY/WX    TMP DP  RH WIND       PRES   REMARKS
ST JOHNSBURY     N/A     31  26  82 MISG      30.09F                  
MONTPELIER     CLOUDY    30  28  92 CALM      30.10F                  
BURLINGTON     PTSUNNY   37  30  75 S9        30.08S                  
$$

MAZ007-012-024-CTZ003-RIZ002-NYZ038-NYZ072-191600-
SOUTHERN NEW ENGLAND AND NY
  
CITY           SKY/WX    TMP DP  RH WIND       PRES   REMARKS
BOSTON         LGT RAIN  38  35  89 N6        30.14F FOG              
WORCESTER      DRIZZLE   32  32 100 CALM      30.10F FOG              
NANTUCKET      FAIR      53  46  77 SW10      30.13F                  
PROVIDENCE     CLOUDY    43  34  70 W3        30.13F                  
HARTFORD       LGT RAIN  34  33  96 CALM      30.14S FOG              
ALBANY         CLOUDY    34  31  88 CALM      30.14S FOG              
NEW YORK CITY  PTSUNNY   48  41  76 W6        30.12F                  
$$

ANZ081-ANZ082-ANZ150-NHZ014-MEZ023>029-191600-
COASTAL MARINE OBSERVATIONS
  
STATION/POSITION TIME  TEMP    WIND        PRES    WAVE
                       AIR SEA DIR/SP/G            HT/PER
                 (UTC) (F)     (DEG/KT/KT) (MB)    (FT/S)
MOUNT DESERT ROC 1500   39      90/ 11/ 13 1021.8F
MATINICUS ROCK   1400   39     110/ 14/ 17 1021.2F
ISLE OF SHOALS   1400   40      50/  6/  7 1020.7F
CASHES LEDGE BUO 1450   41 49              1021.0F   2/ 9
$$

.............KEY..............
   WCI - WIND CHILL
   TC  - TEMPERATURE IN CELSIUS
   VSB - VISIBILITY IN MILES
   HX  - HEAT INDEX
   FAIR- INDICATES FEW OR NO CLOUDS BELOW 12,000 FT, WITH NO 
         SIGNIFICANT WEATHER AND/OR OBSTRUCTIONS TO VISIBILITY.